TimeHST,TemperatureF,Dew PointF,Humidity,Sea Level PressureIn,VisibilityMPH,Wind Direction,Wind SpeedMPH,Gust SpeedMPH,PrecipitationIn,Events,Conditions,WindDirDegrees,DateUTC
12:53 AM,61.0,55.9,83,29.91,10.0,West,8.1,-,N/A,,Clear,270,2013-01-18 10:53:00
1:53 AM,60.1,55.9,86,29.91,10.0,West,9.2,-,N/A,,Clear,280,2013-01-18 11:53:00
2:53 AM,61.0,55.0,81,29.90,10.0,West,8.1,-,N/A,,Clear,280,2013-01-18 12:53:00
3:53 AM,57.9,54.0,87,29.89,10.0,West,5.8,-,N/A,,Clear,260,2013-01-18 13:53:00
4:53 AM,60.1,55.0,83,29.89,10.0,West,10.4,-,N/A,,Clear,270,2013-01-18 14:53:00
5:53 AM,57.9,54.0,87,29.90,10.0,WSW,5.8,-,N/A,,Clear,250,2013-01-18 15:53:00
6:53 AM,60.1,55.0,83,29.92,10.0,West,9.2,-,N/A,,Clear,280,2013-01-18 16:53:00
7:53 AM,62.1,55.9,80,29.93,10.0,West,6.9,-,N/A,,Clear,270,2013-01-18 17:53:00
8:53 AM,68.0,59.0,73,29.96,10.0,West,5.8,-,N/A,,Clear,270,2013-01-18 18:53:00
9:53 AM,72.0,61.0,68,29.97,10.0,SW,3.5,-,N/A,,Partly Cloudy,230,2013-01-18 19:53:00
10:53 AM,75.0,59.0,57,29.97,10.0,South,5.8,-,N/A,,Clear,180,2013-01-18 20:53:00
11:53 AM,73.9,59.0,59,29.94,10.0,Variable,5.8,-,N/A,,Mostly Cloudy,0,2013-01-18 21:53:00
12:53 PM,73.0,60.1,64,29.91,10.0,ESE,6.9,-,N/A,,Overcast,120,2013-01-18 22:53:00
1:53 PM,73.9,61.0,64,29.88,10.0,SE,6.9,-,N/A,,Overcast,140,2013-01-18 23:53:00
2:53 PM,73.9,61.0,64,29.87,10.0,North,9.2,-,0.00,,Mostly Cloudy,350,2013-01-19 00:53:00
3:53 PM,73.0,60.1,64,29.88,10.0,North,19.6,25.3,N/A,,Partly Cloudy,360,2013-01-19 01:53:00
4:53 PM,72.0,61.0,68,29.89,10.0,NNE,15.0,20.7,N/A,,Clear,20,2013-01-19 02:53:00
5:53 PM,70.0,57.9,65,29.91,10.0,North,18.4,-,N/A,,Clear,360,2013-01-19 03:53:00
6:53 PM,69.1,57.0,65,29.94,10.0,North,15.0,-,N/A,,Clear,360,2013-01-19 04:53:00
7:53 PM,68.0,55.0,63,29.96,10.0,North,12.7,-,N/A,,Partly Cloudy,360,2013-01-19 05:53:00
8:53 PM,66.0,53.1,63,29.98,10.0,North,5.8,-,N/A,,Partly Cloudy,350,2013-01-19 06:53:00
9:53 PM,68.0,54.0,61,29.98,10.0,North,6.9,-,N/A,,Mostly Cloudy,350,2013-01-19 07:53:00
10:53 PM,66.9,54.0,63,29.99,10.0,North,10.4,-,N/A,,Mostly Cloudy,350,2013-01-19 08:53:00
11:53 PM,66.0,52.0,60,29.98,10.0,NNW,9.2,-,N/A,,Clear,340,2013-01-19 09:53:00